LNR679D LEMD-GMMN

Flight info

Callsign LNR679D
Flight time 1h 25m
Altitude 41000
Route VTB DCT INPAN DCT CRISA DCT HIJ DCT SVL DCT VJF N10 LINTO UN10 BARIS UB11 TUSOR
Aircraft B789/H-SDE1E2E3FGHIJ2J3J4J5M1RWXY/LB1D1

Departure

Time 2026-05-06 13:59
Airport Adolfo Suárez Madrid–Barajas Airport (LEMD)

Arrival

Time 2026-05-06 15:25
Airport Mohammed V International Airport (GMMN)
Time Latitude Longitude Altitude Speed Heading
2026-05-06 13:31 40.49355 -3.56849 1978 ft 0 kts 90°
2026-05-06 13:46 40.49355 -3.56872 1979 ft 3 kts 90°
2026-05-06 13:46 40.49355 -3.56896 1978 ft 3 kts 90°
2026-05-06 13:46 40.49356 -3.56922 1979 ft 3 kts 116°
2026-05-06 13:47 40.49367 -3.56942 1979 ft 3 kts 156°
2026-05-06 13:47 40.49383 -3.56948 1980 ft 0 kts 186°
2026-05-06 13:47 40.49295 -3.56970 1981 ft 26 kts 195°
2026-05-06 13:47 40.49274 -3.56983 1984 ft 0 kts 217°
2026-05-06 13:48 40.49286 -3.56971 1984 ft 3 kts 214°
2026-05-06 13:48 40.49301 -3.56958 1979 ft 3 kts 212°
2026-05-06 13:48 40.49317 -3.56947 1983 ft 3 kts 183°
2026-05-06 13:48 40.49334 -3.56946 1980 ft 2 kts 180°
2026-05-06 13:49 40.49350 -3.56946 1980 ft 0 kts 180°
2026-05-06 13:53 40.49346 -3.56947 1981 ft 0 kts 184°
2026-05-06 13:54 40.49333 -3.56961 1983 ft 4 kts 224°
2026-05-06 13:54 40.49321 -3.56982 1983 ft 2 kts 232°
2026-05-06 13:54 40.49317 -3.56988 1984 ft 0 kts 234°
2026-05-06 13:54 40.49313 -3.56997 1985 ft 4 kts 237°
2026-05-06 13:55 40.49293 -3.57060 1985 ft 11 kts 257°
2026-05-06 13:55 40.49283 -3.57179 1989 ft 13 kts 250°
2026-05-06 13:55 40.49220 -3.57230 1989 ft 9 kts 205°
2026-05-06 13:55 40.49186 -3.57284 1991 ft 6 kts 256°
2026-05-06 13:56 40.49183 -3.57343 1991 ft 7 kts 266°
2026-05-06 13:56 40.49181 -3.57402 1990 ft 6 kts 274°
2026-05-06 13:56 40.49200 -3.57444 1992 ft 6 kts 319°
2026-05-06 13:56 40.49248 -3.57452 1991 ft 9 kts
2026-05-06 13:57 40.49300 -3.57452 1990 ft 0 kts
2026-05-06 13:58 40.49301 -3.57451 1990 ft 1 kts
2026-05-06 13:58 40.49305 -3.57451 1990 ft 0 kts
2026-05-06 13:58 40.49307 -3.57451 1989 ft 4 kts
2026-05-06 13:59 40.49540 -3.57452 1990 ft 70 kts 359°
2026-05-06 13:59 40.50291 -3.57459 1995 ft 144 kts 359°
2026-05-06 13:59 40.51414 -3.57402 2470 ft 167 kts
2026-05-06 13:59 40.52618 -3.57249 3362 ft 172 kts
2026-05-06 14:00 40.53857 -3.57237 4276 ft 185 kts 356°
2026-05-06 14:00 40.55235 -3.57446 4914 ft 212 kts 348°
2026-05-06 14:00 40.56565 -3.58217 6032 ft 212 kts 322°
2026-05-06 14:00 40.57303 -3.59833 7060 ft 209 kts 281°
2026-05-06 14:01 40.57666 -3.61622 8263 ft 202 kts 297°
2026-05-06 14:01 40.58756 -3.62922 8778 ft 229 kts 339°
2026-05-06 14:01 40.60282 -3.63421 9893 ft 226 kts 349°
2026-05-06 14:01 40.61763 -3.64370 10337 ft 251 kts 316°
2026-05-06 14:02 40.62833 -3.66128 11492 ft 241 kts 308°
2026-05-06 14:02 40.63963 -3.67844 12227 ft 255 kts 315°
2026-05-06 14:02 40.65097 -3.69605 13325 ft 248 kts 303°
2026-05-06 14:02 40.65679 -3.71689 14284 ft 248 kts 272°
2026-05-06 14:03 40.65222 -3.73940 14614 ft 269 kts 236°
2026-05-06 14:03 40.63853 -3.75588 15601 ft 268 kts 212°
2026-05-06 14:03 40.62117 -3.76547 16455 ft 278 kts 192°
2026-05-06 14:03 40.60156 -3.76574 17264 ft 289 kts 168°
2026-05-06 14:04 40.58295 -3.75491 18111 ft 300 kts 143°
2026-05-06 14:04 40.56885 -3.73437 18871 ft 308 kts 127°
2026-05-06 14:04 40.55664 -3.71086 19622 ft 315 kts 125°
2026-05-06 14:04 40.54396 -3.68710 20388 ft 320 kts 129°
2026-05-06 14:05 40.53030 -3.66376 21165 ft 325 kts 130°
2026-05-06 14:05 40.51639 -3.64014 21960 ft 329 kts 130°
2026-05-06 14:05 40.50257 -3.61597 22762 ft 332 kts 130°
2026-05-06 14:05 40.48872 -3.59155 23580 ft 334 kts 130°
2026-05-06 14:06 40.47301 -3.56952 24251 ft 326 kts 151°
2026-05-06 14:06 40.45307 -3.55673 24979 ft 313 kts 175°
2026-05-06 14:06 40.43206 -3.55667 25352 ft 312 kts 199°
2026-05-06 14:06 40.41145 -3.56718 25416 ft 326 kts 213°
2026-05-06 14:07 40.39115 -3.58244 25496 ft 347 kts 214°
2026-05-06 14:07 40.36940 -3.59831 25530 ft 369 kts 211°
2026-05-06 14:07 40.34593 -3.61398 25596 ft 388 kts 210°
2026-05-06 14:07 40.32131 -3.63037 25681 ft 406 kts 211°
2026-05-06 14:08 40.29601 -3.64780 26047 ft 413 kts 211°
2026-05-06 14:08 40.27056 -3.66542 26635 ft 416 kts 211°
2026-05-06 14:08 40.24479 -3.68300 27164 ft 419 kts 211°
2026-05-06 14:08 40.21880 -3.70065 27672 ft 423 kts 211°
2026-05-06 14:09 40.19263 -3.71850 28168 ft 426 kts 211°
2026-05-06 14:09 40.16631 -3.73649 28730 ft 428 kts 211°
2026-05-06 14:09 40.13982 -3.75455 29190 ft 431 kts 211°
2026-05-06 14:09 40.11310 -3.77271 29678 ft 434 kts 211°
2026-05-06 14:10 40.08624 -3.79097 30131 ft 437 kts 211°
2026-05-06 14:10 40.05915 -3.80938 30547 ft 440 kts 211°
2026-05-06 14:10 40.03192 -3.82786 30917 ft 443 kts 211°
2026-05-06 14:10 40.00448 -3.84647 31284 ft 446 kts 211°
2026-05-06 14:11 39.97687 -3.86516 31655 ft 448 kts 211°
2026-05-06 14:11 39.94915 -3.88392 32101 ft 449 kts 211°
2026-05-06 14:11 39.92140 -3.90268 32495 ft 450 kts 211°
2026-05-06 14:11 39.89351 -3.92153 32838 ft 453 kts 211°
2026-05-06 14:12 39.86546 -3.94047 33192 ft 455 kts 210°
2026-05-06 14:12 39.83725 -3.95948 33535 ft 458 kts 210°
2026-05-06 14:12 39.80893 -3.97857 33863 ft 460 kts 210°
2026-05-06 14:12 39.78045 -3.99774 34166 ft 461 kts 210°
2026-05-06 14:13 39.75197 -4.01688 34555 ft 461 kts 210°
2026-05-06 14:13 39.72352 -4.03599 34911 ft 460 kts 210°
2026-05-06 14:13 39.69517 -4.05501 35363 ft 458 kts 210°
2026-05-06 14:13 39.66686 -4.07401 35714 ft 458 kts 210°
2026-05-06 14:14 39.63851 -4.09301 36077 ft 458 kts 210°
2026-05-06 14:14 39.61016 -4.11197 36410 ft 459 kts 211°
2026-05-06 14:14 39.58180 -4.13093 36751 ft 459 kts 211°
2026-05-06 14:14 39.55340 -4.14991 37120 ft 459 kts 211°
2026-05-06 14:15 39.52539 -4.16861 37474 ft 459 kts 211°
2026-05-06 14:15 39.49700 -4.18753 37793 ft 459 kts 211°
2026-05-06 14:15 39.46862 -4.20644 38216 ft 458 kts 211°
2026-05-06 14:15 39.44029 -4.22530 38551 ft 459 kts 211°
2026-05-06 14:16 39.41191 -4.24418 38830 ft 459 kts 211°
2026-05-06 14:16 39.38349 -4.26306 39075 ft 459 kts 211°
2026-05-06 14:16 39.35505 -4.28193 39340 ft 460 kts 211°
2026-05-06 14:16 39.32657 -4.30082 39590 ft 460 kts 211°
2026-05-06 14:17 39.29806 -4.31971 39832 ft 461 kts 211°
2026-05-06 14:17 39.26952 -4.33860 40075 ft 461 kts 211°
2026-05-06 14:17 39.24100 -4.35746 40368 ft 461 kts 211°
2026-05-06 14:17 39.21245 -4.37632 40604 ft 461 kts 210°
2026-05-06 14:18 39.18389 -4.39518 40823 ft 462 kts 210°
2026-05-06 14:18 39.15517 -4.41413 40927 ft 466 kts 210°
2026-05-06 14:18 39.09731 -4.45222 40921 ft 465 kts 210°
2026-05-06 14:19 39.04924 -4.48382 40923 ft 462 kts 210°
2026-05-06 14:19 38.99214 -4.52131 40917 ft 460 kts 210°
2026-05-06 14:20 38.93724 -4.56163 40934 ft 455 kts 220°
2026-05-06 14:20 38.89101 -4.61690 40932 ft 456 kts 227°
2026-05-06 14:21 38.84593 -4.67418 40928 ft 456 kts 227°
2026-05-06 14:21 38.80081 -4.73136 40926 ft 456 kts 227°
2026-05-06 14:22 38.75576 -4.78834 40914 ft 454 kts 227°
2026-05-06 14:22 38.71076 -4.84517 40911 ft 454 kts 227°
2026-05-06 14:23 38.66575 -4.90189 40910 ft 454 kts 227°
2026-05-06 14:23 38.62079 -4.95844 40915 ft 454 kts 227°
2026-05-06 14:24 38.57561 -5.01517 40913 ft 456 kts 226°
2026-05-06 14:24 38.53028 -5.07195 40912 ft 455 kts 226°
2026-05-06 14:25 38.47830 -5.11823 40917 ft 461 kts 209°
2026-05-06 14:25 38.42074 -5.15413 40923 ft 460 kts 210°
2026-05-06 14:26 38.36316 -5.18983 40919 ft 460 kts 210°
2026-05-06 14:26 38.30601 -5.22530 40919 ft 460 kts 210°
2026-05-06 14:27 38.24838 -5.26096 40914 ft 461 kts 210°
2026-05-06 14:27 38.19068 -5.29661 40919 ft 462 kts 210°
2026-05-06 14:28 38.13284 -5.33228 40923 ft 462 kts 209°
2026-05-06 14:28 38.07483 -5.36799 40908 ft 464 kts 209°
2026-05-06 14:29 38.01680 -5.40365 40906 ft 462 kts 209°
2026-05-06 14:29 37.95889 -5.43918 40903 ft 462 kts 209°
2026-05-06 14:30 37.90104 -5.47460 40896 ft 461 kts 209°
2026-05-06 14:30 37.84330 -5.50991 40893 ft 461 kts 209°
2026-05-06 14:31 37.78559 -5.54512 40905 ft 460 kts 209°
2026-05-06 14:31 37.72792 -5.58026 40902 ft 460 kts 209°
2026-05-06 14:32 37.67009 -5.61542 40896 ft 462 kts 209°
2026-05-06 14:32 37.61218 -5.65058 40910 ft 463 kts 209°
2026-05-06 14:33 37.55416 -5.68573 40902 ft 462 kts 209°
2026-05-06 14:33 37.49680 -5.72043 40905 ft 460 kts 209°
2026-05-06 14:34 37.43865 -5.75443 40917 ft 464 kts 203°
2026-05-06 14:34 37.37463 -5.77188 40915 ft 472 kts 193°
2026-05-06 14:35 37.30961 -5.78370 40912 ft 471 kts 193°
2026-05-06 14:35 37.24529 -5.79537 40908 ft 469 kts 193°
2026-05-06 14:36 37.18070 -5.80710 40909 ft 469 kts 193°
2026-05-06 14:36 37.11610 -5.81877 40911 ft 469 kts 193°
2026-05-06 14:37 37.05150 -5.83045 40914 ft 468 kts 193°
2026-05-06 14:37 36.98707 -5.84207 40912 ft 468 kts 193°
2026-05-06 14:38 36.92265 -5.85367 40913 ft 468 kts 193°
2026-05-06 14:38 36.85817 -5.86526 40914 ft 468 kts 193°
2026-05-06 14:39 36.79377 -5.87681 40909 ft 467 kts 193°
2026-05-06 14:39 36.72941 -5.88835 40910 ft 468 kts 193°
2026-05-06 14:40 36.66499 -5.89986 40913 ft 468 kts 193°
2026-05-06 14:40 36.60051 -5.91138 40886 ft 468 kts 193°
2026-05-06 14:41 36.53625 -5.92282 40926 ft 465 kts 193°
2026-05-06 14:41 36.47222 -5.93422 40927 ft 465 kts 193°
2026-05-06 14:42 36.40856 -5.94553 40940 ft 465 kts 193°
2026-05-06 14:42 36.34441 -5.95690 40927 ft 465 kts 193°
2026-05-06 14:43 36.28039 -5.96824 40939 ft 464 kts 193°
2026-05-06 14:43 36.21579 -5.97428 40956 ft 472 kts 183°
2026-05-06 14:44 36.15002 -5.97087 40956 ft 474 kts 183°
2026-05-06 14:45 36.05130 -5.96572 40945 ft 471 kts 184°
2026-05-06 14:45 35.98599 -5.96233 40942 ft 469 kts 184°
2026-05-06 14:46 35.92070 -5.95896 40944 ft 470 kts 184°
2026-05-06 14:46 35.85536 -5.95555 40935 ft 470 kts 182°
2026-05-06 14:47 35.79044 -5.93915 40944 ft 482 kts 170°
2026-05-06 14:47 35.72550 -5.92042 40957 ft 473 kts 181°
2026-05-06 14:48 35.66022 -5.91863 40950 ft 469 kts 185°
2026-05-06 14:48 35.59506 -5.91818 40933 ft 468 kts 186°
2026-05-06 14:49 35.53001 -5.91766 40947 ft 467 kts 186°
2026-05-06 14:49 35.46504 -5.91716 40953 ft 467 kts 186°
2026-05-06 14:50 35.40006 -5.91670 40951 ft 466 kts 187°
2026-05-06 14:50 35.33525 -5.91856 40948 ft 466 kts 187°
2026-05-06 14:51 35.27085 -5.92023 40949 ft 466 kts 187°
2026-05-06 14:51 35.20600 -5.92215 40948 ft 466 kts 187°
2026-05-06 14:52 35.14117 -5.92390 40948 ft 466 kts 187°
2026-05-06 14:52 35.07643 -5.92573 40949 ft 464 kts 188°
2026-05-06 14:53 35.01191 -5.92752 40942 ft 463 kts 188°
2026-05-06 14:53 34.94789 -5.93171 40961 ft 456 kts 196°
2026-05-06 14:54 34.88829 -5.95457 40954 ft 446 kts 211°
2026-05-06 14:54 34.83734 -5.99605 40930 ft 439 kts 223°
2026-05-06 14:55 34.79001 -6.04270 40940 ft 437 kts 223°
2026-05-06 14:55 34.74292 -6.08949 40946 ft 437 kts 223°
2026-05-06 14:56 34.69548 -6.13634 40948 ft 440 kts 222°
2026-05-06 14:56 34.64827 -6.18299 40941 ft 441 kts 222°
2026-05-06 14:57 34.60067 -6.22990 40941 ft 441 kts 222°
2026-05-06 14:57 34.55311 -6.27672 40930 ft 438 kts 223°
2026-05-06 14:58 34.50441 -6.32068 40947 ft 439 kts 214°
2026-05-06 14:58 34.44730 -6.34917 40942 ft 450 kts 202°
2026-05-06 14:58 34.41746 -6.35972 40767 ft 443 kts 202°
2026-05-06 14:59 34.38786 -6.37017 40094 ft 444 kts 202°
2026-05-06 14:59 34.35825 -6.38055 39534 ft 442 kts 202°
2026-05-06 14:59 34.32879 -6.39086 38976 ft 440 kts 202°
2026-05-06 14:59 34.29945 -6.40116 38352 ft 438 kts 202°
2026-05-06 15:00 34.27035 -6.41137 37717 ft 434 kts 202°
2026-05-06 15:00 34.24142 -6.42152 36922 ft 433 kts 202°
2026-05-06 15:00 34.21246 -6.43166 36146 ft 433 kts 202°
2026-05-06 15:00 34.18355 -6.44176 35362 ft 433 kts 202°
2026-05-06 15:01 34.15473 -6.45183 34566 ft 432 kts 202°
2026-05-06 15:01 34.12585 -6.46191 34023 ft 427 kts 201°
2026-05-06 15:01 34.09759 -6.47175 33410 ft 421 kts 201°
2026-05-06 15:01 34.06953 -6.48155 32653 ft 419 kts 202°
2026-05-06 15:02 34.04163 -6.49130 31924 ft 416 kts 202°
2026-05-06 15:02 34.01390 -6.50099 31194 ft 414 kts 203°
2026-05-06 15:02 33.98734 -6.51356 30462 ft 407 kts 211°
2026-05-06 15:02 33.96294 -6.53030 29728 ft 401 kts 218°
2026-05-06 15:03 33.94107 -6.55069 28970 ft 395 kts 225°
2026-05-06 15:03 33.92142 -6.57344 28261 ft 391 kts 226°
2026-05-06 15:03 33.90198 -6.59606 27559 ft 388 kts 226°
2026-05-06 15:03 33.88272 -6.61859 26870 ft 385 kts 227°
2026-05-06 15:04 33.86364 -6.64102 26198 ft 382 kts 226°
2026-05-06 15:04 33.84467 -6.66327 25531 ft 380 kts 226°
2026-05-06 15:04 33.82578 -6.68535 24873 ft 377 kts 226°
2026-05-06 15:04 33.80703 -6.70726 24227 ft 375 kts 226°
2026-05-06 15:05 33.78836 -6.72909 23600 ft 373 kts 226°
2026-05-06 15:05 33.76979 -6.75079 22870 ft 371 kts 226°
2026-05-06 15:05 33.75134 -6.77231 22156 ft 368 kts 226°
2026-05-06 15:05 33.73304 -6.79366 21467 ft 365 kts 226°
2026-05-06 15:06 33.71493 -6.81477 20813 ft 361 kts 226°
2026-05-06 15:06 33.69694 -6.83574 20158 ft 359 kts 226°
2026-05-06 15:06 33.67937 -6.85619 19590 ft 354 kts 226°
2026-05-06 15:06 33.66146 -6.87683 19017 ft 350 kts 223°
2026-05-06 15:07 33.64182 -6.89334 18471 ft 351 kts 211°
2026-05-06 15:07 33.61917 -6.90469 17879 ft 355 kts 202°
2026-05-06 15:07 33.59580 -6.91403 17333 ft 354 kts 202°
2026-05-06 15:07 33.57257 -6.92322 16778 ft 349 kts 201°
2026-05-06 15:08 33.54970 -6.93221 16255 ft 345 kts 201°
2026-05-06 15:08 33.52684 -6.94127 15715 ft 347 kts 201°
2026-05-06 15:08 33.50398 -6.95033 15192 ft 344 kts 201°
2026-05-06 15:08 33.48139 -6.95923 14658 ft 339 kts 201°
2026-05-06 15:09 33.46623 -6.96522 14321 ft 340 kts 201°
2026-05-06 15:09 33.44403 -6.97399 13793 ft 329 kts 200°
2026-05-06 15:09 33.42277 -6.98235 13286 ft 315 kts 200°
2026-05-06 15:09 33.40221 -6.99046 12811 ft 308 kts 200°
2026-05-06 15:10 33.38185 -6.99851 12340 ft 309 kts 200°
2026-05-06 15:10 33.36166 -7.00648 11882 ft 309 kts 200°
2026-05-06 15:10 33.34139 -7.01444 11424 ft 304 kts 200°
2026-05-06 15:10 33.32135 -7.02232 10945 ft 299 kts 200°
2026-05-06 15:11 33.30231 -7.02979 10607 ft 275 kts 200°
2026-05-06 15:11 33.28419 -7.03692 10518 ft 276 kts 200°
2026-05-06 15:11 33.26589 -7.04414 10421 ft 278 kts 200°
2026-05-06 15:11 33.24800 -7.05116 10281 ft 263 kts 200°
2026-05-06 15:12 33.23042 -7.05806 10075 ft 268 kts 200°
2026-05-06 15:12 33.21292 -7.06493 9763 ft 262 kts 200°
2026-05-06 15:12 33.19626 -7.07349 9456 ft 262 kts 217°
2026-05-06 15:12 33.18396 -7.08888 9176 ft 253 kts 239°
2026-05-06 15:13 33.17789 -7.10836 8850 ft 253 kts 257°
2026-05-06 15:13 33.17456 -7.12902 8282 ft 249 kts 258°
2026-05-06 15:13 33.17161 -7.14903 7717 ft 243 kts 259°
2026-05-06 15:13 33.16833 -7.16833 7132 ft 232 kts 250°
2026-05-06 15:14 33.15953 -7.18427 6808 ft 229 kts 229°
2026-05-06 15:14 33.15172 -7.20094 6933 ft 230 kts 258°
2026-05-06 15:14 33.15269 -7.21919 6946 ft 215 kts 277°
2026-05-06 15:14 33.15518 -7.23657 6945 ft 209 kts 274°
2026-05-06 15:15 33.15551 -7.25351 6937 ft 202 kts 262°
2026-05-06 15:15 33.15314 -7.27046 6936 ft 213 kts 256°
2026-05-06 15:15 33.15000 -7.28824 6758 ft 222 kts 257°
2026-05-06 15:15 33.14711 -7.30618 6591 ft 218 kts 257°
2026-05-06 15:16 33.14434 -7.32402 6407 ft 220 kts 257°
2026-05-06 15:16 33.14152 -7.34206 6213 ft 222 kts 258°
2026-05-06 15:16 33.13874 -7.35982 6019 ft 219 kts 258°
2026-05-06 15:16 33.13595 -7.37765 5834 ft 215 kts 258°
2026-05-06 15:17 33.13319 -7.39503 5648 ft 209 kts 258°
2026-05-06 15:17 33.13054 -7.41183 5482 ft 202 kts 259°
2026-05-06 15:17 33.12806 -7.42763 5319 ft 192 kts 259°
2026-05-06 15:17 33.12559 -7.44323 5171 ft 191 kts 260°
2026-05-06 15:18 33.12312 -7.45888 5020 ft 192 kts 261°
2026-05-06 15:18 33.12068 -7.47450 4864 ft 193 kts 261°
2026-05-06 15:18 33.11876 -7.49035 4672 ft 192 kts 274°
2026-05-06 15:18 33.12375 -7.50432 4513 ft 181 kts 313°
2026-05-06 15:19 33.13463 -7.51151 4427 ft 183 kts 340°
2026-05-06 15:19 33.14651 -7.51627 4310 ft 178 kts 343°
2026-05-06 15:19 33.15806 -7.52039 4153 ft 173 kts 344°
2026-05-06 15:19 33.16937 -7.52427 3995 ft 163 kts 344°
2026-05-06 15:20 33.18014 -7.52798 3849 ft 164 kts 344°
2026-05-06 15:20 33.19086 -7.53166 3627 ft 153 kts 345°
2026-05-06 15:20 33.20088 -7.53510 3581 ft 149 kts 345°
2026-05-06 15:20 33.21051 -7.53839 3483 ft 145 kts 344°
2026-05-06 15:21 33.22005 -7.54166 3304 ft 140 kts 345°
2026-05-06 15:21 33.22939 -7.54487 3114 ft 136 kts 344°
2026-05-06 15:21 33.23859 -7.54799 2932 ft 139 kts 343°
2026-05-06 15:21 33.24795 -7.55126 2757 ft 139 kts 344°
2026-05-06 15:22 33.25733 -7.55438 2567 ft 142 kts 346°
2026-05-06 15:22 33.26673 -7.55754 2388 ft 135 kts 345°
2026-05-06 15:22 33.27544 -7.56055 2205 ft 135 kts 344°
2026-05-06 15:22 33.28489 -7.56378 2016 ft 138 kts 345°
2026-05-06 15:23 33.29413 -7.56698 1845 ft 145 kts 345°
2026-05-06 15:23 33.30348 -7.57011 1637 ft 131 kts 344°
2026-05-06 15:23 33.31208 -7.57323 1457 ft 130 kts 343°
2026-05-06 15:23 33.32115 -7.57608 1255 ft 135 kts 345°
2026-05-06 15:24 33.32994 -7.57915 1089 ft 129 kts 342°
2026-05-06 15:24 33.33866 -7.58244 959 ft 131 kts 346°
2026-05-06 15:24 33.34738 -7.58511 737 ft 131 kts 351°
2026-05-06 15:24 33.35565 -7.58798 659 ft 107 kts 345°
2026-05-06 15:25 33.36101 -7.58987 656 ft 62 kts 344°
2026-05-06 15:25 33.36450 -7.59080 657 ft 38 kts 359°
2026-05-06 15:25 33.36668 -7.59032 658 ft 23 kts 14°
2026-05-06 15:25 33.36762 -7.58977 658 ft 5 kts 56°
2026-05-06 15:26 33.36768 -7.58961 658 ft 3 kts 64°
2026-05-06 15:26 33.36784 -7.58912 657 ft 10 kts 73°
2026-05-06 15:26 33.36811 -7.58804 657 ft 16 kts 73°
2026-05-06 15:26 33.36845 -7.58660 658 ft 19 kts 74°
2026-05-06 15:27 33.36869 -7.58553 658 ft 0 kts 75°
2026-05-06 15:27 33.36874 -7.58532 658 ft 5 kts 76°
2026-05-06 15:27 33.36884 -7.58481 658 ft 8 kts 79°
2026-05-06 15:27 33.36904 -7.58399 659 ft 12 kts 73°
2026-05-06 15:28 33.36934 -7.58290 659 ft 15 kts 70°
2026-05-06 15:28 33.36991 -7.58238 659 ft 9 kts 355°
2026-05-06 15:28 33.37054 -7.58254 658 ft 10 kts 346°
2026-05-06 15:28 33.37101 -7.58270 659 ft 0 kts 345°
2026-05-06 15:29 33.37106 -7.58272 659 ft 2 kts 343°
2026-05-06 15:29 33.37118 -7.58273 659 ft 2 kts 360°
2026-05-06 15:29 33.37135 -7.58256 659 ft 3 kts 52°
2026-05-06 15:29 33.37149 -7.58231 659 ft 5 kts 59°
2026-05-06 15:30 33.37160 -7.58201 659 ft 0 kts 64°
2026-05-06 15:30 33.37162 -7.58195 659 ft 0 kts 64°
2026-05-06 15:30 33.37163 -7.58193 659 ft 0 kts 64°